Burns, OR

5:43 AM PDT on March 26, 2017 (GMT -0700)
Burns Municipal

Weather History for KBNO - May, 2013

Change the Weather History Date:

Wednesday, May 15, 2013

  Actual Average Record
Temperature  
Mean Temperature 57 °F 51 °F  
Max Temperature 74 °F 66 °F 89 °F (2006)
Min Temperature 40 °F 37 °F 23 °F (1974)
Degree Days  
Heating Degree Days 8 14  
Month to date heating degree days 133 238  
Since 1 July heating degree days 6974 7278  
Cooling Degree Days 0 0  
Month to date cooling degree days 1 0  
Year to date cooling degree days 1 0  
Growing Degree Days 6 (Base 50)    
Moisture  
Dew Point 33 °F    
Average Humidity 44    
Maximum Humidity 65    
Minimum Humidity 22    
Precipitation  
Precipitation 0.00 in 0.04 in 0.80 in (2011)
Month to date precipitation 0.03 0.55  
Year to date precipitation 1.34 4.78  
Sea Level Pressure  
Sea Level Pressure 29.93 in    
Wind  
Wind Speed 8 mph (West)    
Max Wind Speed 24 mph    
Max Gust Speed 33 mph    
Visibility 10 miles    
Events      
T = Trace of Precipitation, MM = Missing Value Source: NWS Daily Summary

Daily Weather History Graph

Daily Weather History Graph

Search for Another Location

Airport or City:

Trip Planner

Search our weather history database for the weather conditions in past years. The results will help you decide how hot, cold, wet, or windy it might be!

Date:

Astronomy

May. 15, 2013 Rise Set
Actual Time 5:30 AM PDT 8:14 PM PDT
Civil Twilight 4:57 AM PDT 8:47 PM PDT
Nautical Twilight 4:15 AM PDT 9:29 PM PDT
Astronomical Twilight 3:27 AM PDT 10:17 PM PDT
Moon 10:12 AM PDT (5/15) 12:02 AM PDT (5/15)
Length of Visible Light 15h 50m
Length of Day
14h 43m
Waxing Crescent, 28% of the Moon is Illuminated
May 15
Waxing Crescent
May 17
First Quarter
May 24
Full
May 31
Last Quarter
Jun 8
New

Hourly Weather History & Observations

Time (PDT) Temp. Windchill Dew Point Humidity Pressure Visibility Wind Dir Wind Speed Gust Speed Precip Events Conditions
12:53 AM 48.0 °F - 33.1 °F 56% 30.00 in 10.0 mi Calm Calm - N/A   Clear
1:53 AM 46.9 °F - 34.0 °F 61% 30.00 in 10.0 mi West 9.2 mph - N/A   Clear
2:53 AM 46.0 °F 41.9 °F 32.0 °F 58% 29.98 in 10.0 mi WNW 8.1 mph - N/A   Clear
3:53 AM 44.1 °F 38.6 °F 32.0 °F 63% 29.98 in 10.0 mi WNW 10.4 mph - N/A   Clear
4:53 AM 42.1 °F 36.6 °F 30.9 °F 65% 29.98 in 10.0 mi West 9.2 mph - N/A   Clear
5:53 AM 41.0 °F 35.2 °F 30.9 °F 67% 29.99 in 10.0 mi West 9.2 mph - N/A   Clear
6:53 AM 45.0 °F 40.6 °F 32.0 °F 60% 29.99 in 10.0 mi West 8.1 mph - N/A   Clear
7:53 AM 53.1 °F - 34.0 °F 48% 29.99 in 10.0 mi Calm Calm - N/A   Clear
8:53 AM 57.0 °F - 33.1 °F 40% 29.99 in 10.0 mi Calm Calm - N/A   Clear
9:53 AM 63.0 °F - 34.0 °F 34% 29.96 in 10.0 mi Calm Calm - N/A   Scattered Clouds
10:53 AM 64.0 °F - 30.9 °F 29% 29.95 in 10.0 mi Variable 3.5 mph - N/A   Clear
11:53 AM 64.0 °F - 33.1 °F 31% 29.93 in 10.0 mi South 6.9 mph - N/A   Scattered Clouds
12:53 PM 68.0 °F - 30.9 °F 25% 29.91 in 10.0 mi Variable 6.9 mph - N/A   Clear
1:53 PM 70.0 °F - 33.1 °F 26% 29.89 in 10.0 mi WSW 10.4 mph - N/A   Clear
2:53 PM 71.1 °F - 32.0 °F 24% 29.87 in 10.0 mi Variable 5.8 mph - N/A   Clear
3:53 PM 73.0 °F - 32.0 °F 22% 29.84 in 10.0 mi WSW 15.0 mph 21.9 mph N/A   Partly Cloudy
4:53 PM 70.0 °F - 30.9 °F 24% 29.84 in 10.0 mi WSW 15.0 mph - N/A   Overcast
5:53 PM 64.9 °F - 35.1 °F 33% 29.88 in 10.0 mi West 17.3 mph 27.6 mph N/A   Overcast
6:53 PM 63.0 °F - 36.0 °F 37% 29.87 in 10.0 mi WNW 15.0 mph 21.9 mph N/A   Clear
7:53 PM 60.1 °F - 34.0 °F 38% 29.88 in 10.0 mi WNW 13.8 mph - N/A   Mostly Cloudy
8:53 PM 57.0 °F - 34.0 °F 42% 29.91 in 10.0 mi WNW 12.7 mph - N/A   Scattered Clouds
9:53 PM 54.0 °F - 36.0 °F 51% 29.92 in 10.0 mi West 9.2 mph - N/A   Clear
10:53 PM 50.0 °F - 35.1 °F 57% 29.93 in 10.0 mi NW 4.6 mph - N/A   Clear
11:53 PM 51.1 °F - 37.9 °F 61% 29.93 in 10.0 mi West 8.1 mph - N/A   Mostly Cloudy